STARLINK-1306 (45362 NORAD) Tracking and Keplerian Element Data

This shows tracking and keplerian element data for the satellite.

Feedback or suggestion? Click here.




ElementValue
Catalog45362
NameSTARLINK-1306
Epoch Orbit1768
Epoch Day190.25001157
Epoch Year2020
RAAN101.0935
Inclination53.0015
Eccentricity0.0001361
Argument of Perigee78.0883
Mean Anonmoly25.9207
Mean Motion15.0231541
Decay Rate0.00030982
L11 45362U 20019C 20190.25001157 .00030982 00000-0 23299-2 0 9994
L22 45362 53.0015 101.0935 0001361 78.0883 25.9207 15.02315410 17689

Live tracking and technical data element details for STARLINK-1306 (NORAD 45362). STARLINK-1306 can be tracked NOW for your location showing map with azimuth and elevation plus other details from your city location.

Track the satellite on the map from your city or location and see movement details for azimuth, elevation, latitude, longitude, range, height, and movement on the map or in text.







IsCatalogInMostPopularTable: catalog: 45362, numindb: 23
Update: records affected: 1



GetName: 45362 STARLINK-1306

Hit Count: updated at: Fri, 10 Jul 2020 02:20:16 GMT